GSAT-6 (40880 NORAD) Tracking and Keplerian Element Data

This shows tracking and keplerian element data for the satellite.

Feedback or suggestion? Click here.




ElementValue
Catalog40880
NameGSAT-6
Epoch Orbit2231
Epoch Day268.69077331
Epoch Year2021
RAAN128.6278
Inclination0.0186
Eccentricity0.000441
Argument of Perigee53.0207
Mean Anonmoly154.2398
Mean Motion1.0026931
Decay Rate-1.63E-06
L11 40880U 15041A 21268.69077331 -.00000163 00000-0 00000-0 0 9997
L22 40880 0.0186 128.6278 0004410 53.0207 154.2398 1.00269310 22319

Live tracking and technical data element details for GSAT-6 (NORAD 40880). GSAT-6 can be tracked NOW for your location showing map with azimuth and elevation plus other details from your city location.

Track the satellite on the map from your city or location and see movement details for azimuth, elevation, latitude, longitude, range, height, and movement on the map or in text.







IsCatalogInMostPopularTable: catalog: 40880, numindb: 546
Update: records affected: 1



GetName: 40880 GSAT-6

Hit Count: updated at: Mon, 27 Sep 2021 01:25:44 GMT